| time (UTC) | temp C | wind direction | speed KPH | gust KPH | rain 1hr cm | rain 24hr cm | rain mn cm | humidity % | barometer mb |
| 20260502130533 | 3 | 0.0 | 0.0 | 0.00 | 0.00 | 0.00 | 63 | 1020.0 | |
| 20260502123531 | 4 | 0.0 | 0.0 | 0.00 | 0.00 | 0.00 | 61 | 1020.2 | |
| 20260502123033 | 4 | 0.0 | 0.0 | 0.00 | 0.00 | 0.00 | 60 | 1020.3 | |
| 20260502122533 | 4 | 0.0 | 0.0 | 0.00 | 0.00 | 0.00 | 62 | 1020.2 | |
| 20260502122033 | 4 | 0.0 | 0.0 | 0.00 | 0.00 | 0.00 | 60 | 1020.3 | |
| 20260502121533 | 4 | 0.0 | 0.0 | 0.00 | 0.00 | 0.00 | 61 | 1020.3 | |
| 20260502121033 | 4 | 0.0 | 0.0 | 0.00 | 0.00 | 0.00 | 59 | 1020.2 | |
| 20260502120535 | 5 | 0.0 | 0.0 | 0.00 | 0.00 | 0.00 | 59 | 1020.2 | |
| 20260502115533 | 5 | 0.0 | 0.0 | 0.00 | 0.00 | 0.00 | 57 | 1020.5 | |
| 20260502115033 | 5 | 0.0 | 0.0 | 0.00 | 0.00 | 0.00 | 56 | 1020.5 | |
| 20260502114536 | 6 | 0.0 | 0.0 | 0.00 | 0.00 | 0.00 | 53 | 1020.7 | |
| 20260502114031 | 6 | 0.0 | 0.0 | 0.00 | 0.00 | 0.00 | 52 | 1020.8 | |
| 20260502113533 | 6 | 0.0 | 3.2 | 0.00 | 0.00 | 0.00 | 51 | 1020.8 | |
| 20260502113034 | 6 | 338 | 1.6 | 4.8 | 0.00 | 0.00 | 0.00 | 53 | 1020.5 |
| 20260502112535 | 5 | 0.0 | 1.6 | 0.00 | 0.00 | 0.00 | 59 | 1020.5 | |
| 20260502112033 | 5 | 0.0 | 1.6 | 0.00 | 0.00 | 0.00 | 61 | 1020.2 | |
| 20260502111534 | 5 | 0.0 | 0.0 | 0.00 | 0.00 | 0.00 | 60 | 1020.5 | |
| 20260502111032 | 5 | 0.0 | 0.0 | 0.00 | 0.00 | 0.00 | 58 | 1020.3 | |
| 20260502110534 | 5 | 0.0 | 0.0 | 0.00 | 0.00 | 0.00 | 57 | 1020.6 | |
| 20260502110033 | 5 | 0.0 | 0.0 | 0.00 | 0.00 | 0.00 | 56 | 1020.6 | |
| 20260502105535 | 5 | 0.0 | 0.0 | 0.00 | 0.00 | 0.00 | 56 | 1020.6 | |
| 20260502105034 | 5 | 0.0 | 0.0 | 0.00 | 0.00 | 0.00 | 59 | 1020.2 | |
| 20260502104554 | 5 | 0.0 | 0.0 | 0.00 | 0.00 | 0.00 | 59 | 1020.2 | |
| 20260502104034 | 4 | 0.0 | 0.0 | 0.00 | 0.00 | 0.00 | 62 | 1020.2 | |
| 20260502103532 | 4 | 0.0 | 0.0 | 0.00 | 0.00 | 0.00 | 60 | 1020.1 | |
| 20260502103031 | 4 | 0.0 | 0.0 | 0.00 | 0.00 | 0.00 | 59 | 1020.2 | |
| 20260502102555 | 4 | 0.0 | 0.0 | 0.00 | 0.00 | 0.00 | 60 | 1020.1 | |
| 20260502102032 | 4 | 0.0 | 0.0 | 0.00 | 0.00 | 0.00 | 60 | 1020.1 | |
| 20260502101554 | 4 | 0.0 | 0.0 | 0.00 | 0.00 | 0.00 | 61 | 1020.0 | |
| 20260502101053 | 5 | 0.0 | 0.0 | 0.00 | 0.00 | 0.00 | 57 | 1020.3 | |
| 20260502100532 | 5 | 0.0 | 0.0 | 0.00 | 0.00 | 0.00 | 55 | 1020.3 | |
| 20260502091035 | 6 | 0.0 | 0.0 | 0.00 | 0.00 | 0.00 | 55 | 1020.3 | |
| 20260502090534 | 6 | 0.0 | 0.0 | 0.00 | 0.00 | 0.00 | 55 | 1020.4 | |
| 20260502071534 | 8 | 0.0 | 0.0 | 0.00 | 0.00 | 0.00 | 46 | 1020.7 | |
| 20260502071034 | 7 | 0.0 | 0.0 | 0.00 | 0.00 | 0.00 | 46 | 1020.7 | |
| 20260502070534 | 7 | 0.0 | 0.0 | 0.00 | 0.00 | 0.00 | 50 | 1020.9 | |
| 20260502070033 | 7 | 0.0 | 0.0 | 0.00 | 0.00 | 0.00 | 51 | 1020.8 | |
| 20260502065534 | 8 | 0.0 | 0.0 | 0.00 | 0.00 | 0.00 | 48 | 1020.9 | |
| 20260502065032 | 8 | 0.0 | 0.0 | 0.00 | 0.00 | 0.00 | 47 | 1020.8 | |
| 20260502064553 | 8 | 0.0 | 0.0 | 0.00 | 0.00 | 0.00 | 45 | 1021.1 | |
| 20260502064031 | 8 | 0.0 | 1.6 | 0.00 | 0.00 | 0.00 | 45 | 1020.7 | |
| 20260502063533 | 8 | 0.0 | 0.0 | 0.00 | 0.00 | 0.00 | 46 | 1021.1 | |
| 20260502063031 | 8 | 0.0 | 0.0 | 0.00 | 0.00 | 0.00 | 47 | 1020.7 | |
| 20260502062535 | 8 | 0.0 | 0.0 | 0.00 | 0.00 | 0.00 | 48 | 1020.8 | |
| 20260502062031 | 8 | 0.0 | 1.6 | 0.00 | 0.00 | 0.00 | 47 | 1020.8 | |
| 20260502061554 | 8 | 0.0 | 0.0 | 0.00 | 0.00 | 0.00 | 49 | 1020.8 | |
| 20260502061032 | 8 | 0.0 | 0.0 | 0.00 | 0.00 | 0.00 | 50 | 1020.7 | |
| 20260502060533 | 8 | 0.0 | 0.0 | 0.00 | 0.00 | 0.00 | 49 | 1021.0 | |
| 20260502060054 | 8 | 0.0 | 0.0 | 0.00 | 0.00 | 0.00 | 49 | 1020.7 | |
| 20260502055534 | 8 | 0.0 | 1.6 | 0.00 | 0.00 | 0.00 | 48 | 1020.6 | |
| 20260502055033 | 8 | 0.0 | 1.6 | 0.00 | 0.00 | 0.00 | 49 | 1020.3 | |
| 20260502054533 | 7 | 0.0 | 0.0 | 0.00 | 0.00 | 0.00 | 53 | 1020.3 | |
| 20260502054033 | 8 | 0.0 | 0.0 | 0.00 | 0.00 | 0.00 | 53 | 1020.3 | |
| 20260502053533 | 8 | 0.0 | 0.0 | 0.00 | 0.00 | 0.00 | 53 | 1020.3 | |
| 20260502053034 | 8 | 0.0 | 0.0 | 0.00 | 0.00 | 0.00 | 53 | 1020.4 | |
| 20260502052555 | 8 | 0.0 | 0.0 | 0.00 | 0.00 | 0.00 | 52 | 1020.3 | |
| 20260502052032 | 8 | 0.0 | 0.0 | 0.00 | 0.00 | 0.00 | 52 | 1020.3 | |
| 20260502051533 | 8 | 0.0 | 0.0 | 0.00 | 0.00 | 0.00 | 52 | 1020.3 | |
| 20260502051033 | 8 | 0.0 | 0.0 | 0.00 | 0.00 | 0.00 | 52 | 1020.5 | |
| 20260502050534 | 8 | 0.0 | 0.0 | 0.00 | 0.00 | 0.00 | 51 | 1020.3 | |
| 20260502050034 | 8 | 0.0 | 0.0 | 0.00 | 0.00 | 0.00 | 51 | 1020.2 | |
| 20260502045535 | 8 | 0.0 | 0.0 | 0.00 | 0.00 | 0.00 | 51 | 1020.2 | |
| 20260502045033 | 8 | 0.0 | 0.0 | 0.00 | 0.00 | 0.00 | 52 | 1020.0 | |
| 20260502044534 | 8 | 0.0 | 0.0 | 0.00 | 0.00 | 0.00 | 51 | 1019.9 | |
| 20260502044031 | 8 | 0.0 | 0.0 | 0.00 | 0.00 | 0.00 | 52 | 1020.0 | |
| 20260502043554 | 8 | 0.0 | 0.0 | 0.00 | 0.00 | 0.00 | 52 | 1019.9 | |
| 20260502043053 | 8 | 0.0 | 0.0 | 0.00 | 0.00 | 0.00 | 49 | 1019.9 | |
| 20260502042533 | 8 | 0.0 | 0.0 | 0.00 | 0.00 | 0.00 | 49 | 1019.9 | |
| 20260502042032 | 9 | 0.0 | 0.0 | 0.00 | 0.00 | 0.00 | 48 | 1019.9 | |
| 20260502041534 | 9 | 0.0 | 0.0 | 0.00 | 0.00 | 0.00 | 47 | 1019.8 | |
| 20260502041112 | 9 | 0.0 | 0.0 | 0.00 | 0.00 | 0.00 | 47 | 1019.8 | |
| 20260502040533 | 9 | 0.0 | 0.0 | 0.00 | 0.00 | 0.00 | 46 | 1019.8 | |
| 20260502040034 | 10 | 0.0 | 0.0 | 0.00 | 0.00 | 0.00 | 45 | 1019.7 | |
| 20260502035533 | 10 | 0.0 | 0.0 | 0.00 | 0.00 | 0.00 | 44 | 1019.7 | |
| 20260502035034 | 10 | 0.0 | 0.0 | 0.00 | 0.00 | 0.00 | 42 | 1019.7 | |
| 20260502034536 | 10 | 0.0 | 0.0 | 0.00 | 0.00 | 0.00 | 41 | 1019.6 | |
| 20260502034053 | 11 | 0.0 | 0.0 | 0.00 | 0.00 | 0.00 | 40 | 1019.8 | |
| 20260502033535 | 11 | 0.0 | 0.0 | 0.00 | 0.00 | 0.00 | 39 | 1019.8 | |
| 20260502033033 | 11 | 0.0 | 0.0 | 0.00 | 0.00 | 0.00 | 39 | 1019.7 | |
| 20260502032535 | 11 | 0.0 | 0.0 | 0.00 | 0.00 | 0.00 | 39 | 1019.6 | |
| 20260502032035 | 11 | 0.0 | 0.0 | 0.00 | 0.00 | 0.00 | 38 | 1019.3 | |
| 20260502031535 | 11 | 0.0 | 0.0 | 0.00 | 0.00 | 0.00 | 37 | 1019.6 | |
| 20260502031034 | 12 | 0.0 | 0.0 | 0.00 | 0.00 | 0.00 | 36 | 1019.5 | |
| 20260502030533 | 12 | 0.0 | 0.0 | 0.00 | 0.00 | 0.00 | 36 | 1019.4 | |
| 20260502030035 | 12 | 0.0 | 0.0 | 0.00 | 0.00 | 0.00 | 34 | 1019.4 | |
| 20260502025533 | 12 | 0.0 | 0.0 | 0.00 | 0.00 | 0.00 | 33 | 1019.3 | |
| 20260502025035 | 12 | 0.0 | 0.0 | 0.00 | 0.00 | 0.00 | 33 | 1019.3 | |
| 20260502024553 | 13 | 0.0 | 0.0 | 0.00 | 0.00 | 0.00 | 32 | 1019.3 | |
| 20260502024034 | 13 | 0.0 | 0.0 | 0.00 | 0.00 | 0.00 | 32 | 1019.2 | |
| 20260502023554 | 13 | 0.0 | 0.0 | 0.00 | 0.00 | 0.00 | 31 | 1019.2 | |
| 20260502023033 | 14 | 0.0 | 0.0 | 0.00 | 0.00 | 0.00 | 28 | 1019.5 | |
| 20260502022714 | 15 | 0.0 | 1.6 | 0.00 | 0.00 | 0.00 | 28 | 1019.1 | |
| 20260502022033 | 15 | 0.0 | 1.6 | 0.00 | 0.00 | 0.00 | 28 | 1019.4 | |
| 20260502021533 | 15 | 0.0 | 3.2 | 0.00 | 0.00 | 0.00 | 27 | 1019.3 | |
| 20260502021031 | 15 | 0.0 | 3.2 | 0.00 | 0.00 | 0.00 | 28 | 1019.0 | |
| 20260502020532 | 15 | 0.0 | 1.6 | 0.00 | 0.00 | 0.00 | 28 | 1018.9 | |
| 20260502020033 | 15 | 0.0 | 4.8 | 0.00 | 0.00 | 0.00 | 28 | 1018.6 | |
| 20260502015533 | 16 | 0.0 | 4.8 | 0.00 | 0.00 | 0.00 | 28 | 1018.6 | |
| 20260502015033 | 16 | 113 | 1.6 | 4.8 | 0.00 | 0.00 | 0.00 | 28 | 1018.5 |
| 20260502014533 | 16 | 113 | 1.6 | 8.0 | 0.00 | 0.00 | 0.00 | 28 | 1018.5 |
| 20260502014035 | 16 | 113 | 1.6 | 6.4 | 0.00 | 0.00 | 0.00 | 28 | 1018.1 |
| 20260502013552 | 16 | 113 | 1.6 | 8.0 | 0.00 | 0.00 | 0.00 | 28 | 1018.1 |
| 20260502013033 | 16 | 113 | 3.2 | 11.3 | 0.00 | 0.00 | 0.00 | 28 | 1017.8 |
| 20260502012553 | 16 | 113 | 4.8 | 16.1 | 0.00 | 0.00 | 0.00 | 28 | 1017.8 |
| 20260502012034 | 17 | 113 | 3.2 | 9.7 | 0.00 | 0.00 | 0.00 | 27 | 1017.7 |
| 20260502011534 | 17 | 135 | 3.2 | 11.3 | 0.00 | 0.00 | 0.00 | 28 | 1017.4 |
| 20260502011113 | 17 | 113 | 1.6 | 8.0 | 0.00 | 0.00 | 0.00 | 28 | 1017.3 |
| 20260502010535 | 17 | 158 | 3.2 | 9.7 | 0.00 | 0.00 | 0.00 | 28 | 1017.5 |
| 20260502010031 | 17 | 135 | 4.8 | 12.9 | 0.00 | 0.00 | 0.00 | 28 | 1017.4 |
| 20260502005533 | 17 | 135 | 4.8 | 11.3 | 0.00 | 0.00 | 0.00 | 28 | 1017.5 |
| 20260502005033 | 17 | 135 | 3.2 | 8.0 | 0.00 | 0.00 | 0.00 | 28 | 1017.4 |
| 20260502004535 | 17 | 113 | 4.8 | 12.9 | 0.00 | 0.00 | 0.00 | 28 | 1017.4 |
| 20260502004032 | 17 | 135 | 4.8 | 14.5 | 0.00 | 0.00 | 0.00 | 27 | 1017.4 |
| 20260502003534 | 17 | 135 | 3.2 | 9.7 | 0.00 | 0.00 | 0.00 | 28 | 1017.4 |
| 20260502003114 | 17 | 113 | 6.4 | 16.1 | 0.00 | 0.00 | 0.00 | 28 | 1017.4 |
| 20260502002555 | 17 | 113 | 4.8 | 17.7 | 0.00 | 0.00 | 0.00 | 27 | 1017.4 |
| 20260502002032 | 18 | 135 | 3.2 | 11.3 | 0.00 | 0.00 | 0.00 | 27 | 1017.5 |
| 20260502001534 | 17 | 135 | 4.8 | 14.5 | 0.00 | 0.00 | 0.00 | 28 | 1017.5 |
| 20260502001113 | 17 | 113 | 4.8 | 11.3 | 0.00 | 0.00 | 0.00 | 27 | 1017.8 |
| 20260502000534 | 17 | 135 | 3.2 | 11.3 | 0.00 | 0.00 | 0.00 | 27 | 1017.9 |
| 20260502000053 | 18 | 135 | 3.2 | 11.3 | 0.00 | 0.00 | 0.00 | 27 | 1017.9 |
| 20260501235533 | 18 | 135 | 3.2 | 11.3 | 0.00 | 0.00 | 0.00 | 27 | 1017.9 |
| 20260501235033 | 18 | 135 | 4.8 | 16.1 | 0.00 | 0.00 | 0.00 | 27 | 1017.8 |
| 20260501234534 | 18 | 135 | 1.6 | 9.7 | 0.00 | 0.00 | 0.00 | 26 | 1017.8 |
| 20260501234034 | 18 | 113 | 3.2 | 14.5 | 0.00 | 0.00 | 0.00 | 27 | 1018.2 |
| 20260501233534 | 18 | 135 | 4.8 | 12.9 | 0.00 | 0.00 | 0.00 | 26 | 1018.2 |
| 20260501233032 | 18 | 135 | 3.2 | 14.5 | 0.00 | 0.00 | 0.00 | 26 | 1017.9 |
| 20260501232534 | 18 | 113 | 4.8 | 17.7 | 0.00 | 0.00 | 0.00 | 26 | 1018.2 |
| 20260501232033 | 18 | 135 | 4.8 | 12.9 | 0.00 | 0.00 | 0.00 | 26 | 1017.9 |
| 20260501231533 | 18 | 135 | 3.2 | 14.5 | 0.00 | 0.00 | 0.00 | 26 | 1017.9 |
| 20260501231114 | 17 | 113 | 3.2 | 14.5 | 0.00 | 0.00 | 0.00 | 27 | 1017.9 |
| 20260501230534 | 17 | 113 | 6.4 | 16.1 | 0.00 | 0.00 | 0.00 | 26 | 1018.0 |
| 20260501230034 | 17 | 113 | 4.8 | 16.1 | 0.00 | 0.00 | 0.00 | 26 | 1017.9 |
| 20260501225531 | 17 | 135 | 3.2 | 14.5 | 0.00 | 0.00 | 0.00 | 26 | 1017.9 |
| 20260501225034 | 17 | 135 | 4.8 | 12.9 | 0.00 | 0.00 | 0.00 | 25 | 1018.0 |
| 20260501224534 | 18 | 135 | 4.8 | 14.5 | 0.00 | 0.00 | 0.00 | 26 | 1018.0 |
| 20260501224035 | 18 | 158 | 3.2 | 9.7 | 0.00 | 0.00 | 0.00 | 25 | 1018.4 |
| 20260501223532 | 17 | 158 | 4.8 | 17.7 | 0.00 | 0.00 | 0.00 | 25 | 1018.4 |
| 20260501223035 | 17 | 135 | 4.8 | 11.3 | 0.00 | 0.00 | 0.00 | 25 | 1018.4 |
| 20260501222532 | 18 | 113 | 4.8 | 12.9 | 0.00 | 0.00 | 0.00 | 24 | 1018.4 |
| 20260501222035 | 17 | 113 | 6.4 | 16.1 | 0.00 | 0.00 | 0.00 | 25 | 1018.5 |
| 20260501221534 | 18 | 135 | 3.2 | 9.7 | 0.00 | 0.00 | 0.00 | 24 | 1018.5 |
| 20260501221033 | 18 | 135 | 3.2 | 8.0 | 0.00 | 0.00 | 0.00 | 25 | 1018.6 |
| 20260501220534 | 18 | 135 | 4.8 | 17.7 | 0.00 | 0.00 | 0.00 | 23 | 1018.6 |
| 20260501215531 | 18 | 135 | 3.2 | 12.9 | 0.00 | 0.00 | 0.00 | 24 | 1019.0 |
| 20260501215034 | 18 | 113 | 3.2 | 14.5 | 0.00 | 0.00 | 0.00 | 24 | 1019.0 |
| 20260501214552 | 18 | 113 | 3.2 | 12.9 | 0.00 | 0.00 | 0.00 | 24 | 1019.1 |
| 20260501214115 | 18 | 135 | 3.2 | 8.0 | 0.00 | 0.00 | 0.00 | 25 | 1019.1 |
| 20260501213535 | 17 | 135 | 3.2 | 12.9 | 0.00 | 0.00 | 0.00 | 24 | 1019.1 |
| 20260501213035 | 18 | 135 | 6.4 | 12.9 | 0.00 | 0.00 | 0.00 | 24 | 1019.2 |
| 20260501212534 | 18 | 135 | 3.2 | 9.7 | 0.00 | 0.00 | 0.00 | 24 | 1019.2 |
| 20260501212033 | 18 | 113 | 1.6 | 12.9 | 0.00 | 0.00 | 0.00 | 24 | 1019.2 |
| 20260501211533 | 18 | 158 | 3.2 | 11.3 | 0.00 | 0.00 | 0.00 | 25 | 1019.2 |
| 20260501211033 | 17 | 113 | 3.2 | 12.9 | 0.00 | 0.00 | 0.00 | 24 | 1019.2 |
| 20260501210534 | 18 | 113 | 1.6 | 8.0 | 0.00 | 0.00 | 0.00 | 24 | 1019.6 |
| 20260501210054 | 18 | 135 | 3.2 | 12.9 | 0.00 | 0.00 | 0.00 | 24 | 1019.6 |
| 20260501205554 | 17 | 158 | 1.6 | 9.7 | 0.00 | 0.00 | 0.00 | 24 | 1019.5 |
| 20260501205054 | 17 | 113 | 3.2 | 11.3 | 0.00 | 0.00 | 0.00 | 25 | 1019.5 |
| 20260501204532 | 17 | 158 | 6.4 | 12.9 | 0.00 | 0.00 | 0.00 | 23 | 1019.9 |
| 20260501204034 | 18 | 135 | 3.2 | 12.9 | 0.00 | 0.00 | 0.00 | 24 | 1019.9 |
| 20260501203552 | 17 | 225 | 1.6 | 8.0 | 0.00 | 0.00 | 0.00 | 23 | 1019.9 |
| 20260501203115 | 17 | 135 | 1.6 | 9.7 | 0.00 | 0.00 | 0.00 | 23 | 1020.2 |
| 20260501202533 | 17 | 135 | 4.8 | 12.9 | 0.00 | 0.00 | 0.00 | 23 | 1020.1 |
| 20260501202034 | 17 | 135 | 1.6 | 8.0 | 0.00 | 0.00 | 0.00 | 23 | 1020.1 |
| 20260501201533 | 17 | 113 | 3.2 | 9.7 | 0.00 | 0.00 | 0.00 | 23 | 1019.8 |
| 20260501201034 | 18 | 68 | 1.6 | 9.7 | 0.00 | 0.00 | 0.00 | 23 | 1020.2 |
| 20260501200556 | 17 | 68 | 1.6 | 6.4 | 0.00 | 0.00 | 0.00 | 24 | 1020.3 |
| 20260501200035 | 17 | 113 | 3.2 | 11.3 | 0.00 | 0.00 | 0.00 | 23 | 1020.2 |
| 20260501195532 | 17 | 113 | 3.2 | 11.3 | 0.00 | 0.00 | 0.00 | 23 | 1020.3 |
| 20260501195036 | 17 | 68 | 1.6 | 14.5 | 0.00 | 0.00 | 0.00 | 24 | 1020.3 |
| 20260501194532 | 17 | 135 | 1.6 | 6.4 | 0.00 | 0.00 | 0.00 | 23 | 1020.4 |
| 20260501194054 | 17 | 135 | 1.6 | 4.8 | 0.00 | 0.00 | 0.00 | 23 | 1020.4 |
| 20260501193534 | 17 | 113 | 1.6 | 8.0 | 0.00 | 0.00 | 0.00 | 23 | 1020.0 |
| 20260501193035 | 17 | 113 | 1.6 | 4.8 | 0.00 | 0.00 | 0.00 | 22 | 1020.0 |
| 20260501192554 | 18 | 0.0 | 8.0 | 0.00 | 0.00 | 0.00 | 24 | 1020.1 | |
| 20260501192034 | 17 | 0.0 | 3.2 | 0.00 | 0.00 | 0.00 | 24 | 1020.2 | |
| 20260501191532 | 16 | 158 | 3.2 | 9.7 | 0.00 | 0.00 | 0.00 | 23 | 1020.2 |
| 20260501191033 | 17 | 113 | 1.6 | 11.3 | 0.00 | 0.00 | 0.00 | 24 | 1020.6 |
| 20260501190534 | 17 | 0.0 | 4.8 | 0.00 | 0.00 | 0.00 | 25 | 1020.6 | |
| 20260501190034 | 16 | 135 | 1.6 | 8.0 | 0.00 | 0.00 | 0.00 | 25 | 1020.7 |
| 20260501185555 | 16 | 113 | 3.2 | 11.3 | 0.00 | 0.00 | 0.00 | 24 | 1020.7 |
| 20260501185032 | 16 | 135 | 1.6 | 4.8 | 0.00 | 0.00 | 0.00 | 24 | 1020.8 |
| 20260501184533 | 16 | 0.0 | 4.8 | 0.00 | 0.00 | 0.00 | 26 | 1020.8 | |
| 20260501184035 | 16 | 113 | 3.2 | 14.5 | 0.00 | 0.00 | 0.00 | 24 | 1021.1 |
| 20260501183534 | 17 | 113 | 1.6 | 8.0 | 0.00 | 0.00 | 0.00 | 25 | 1021.5 |
| 20260501183035 | 16 | 0.0 | 3.2 | 0.00 | 0.00 | 0.00 | 23 | 1021.2 | |
| 20260501182534 | 16 | 113 | 1.6 | 8.0 | 0.00 | 0.00 | 0.00 | 24 | 1020.9 |
| 20260501182033 | 16 | 113 | 1.6 | 8.0 | 0.00 | 0.00 | 0.00 | 24 | 1020.9 |
| 20260501181535 | 16 | 0.0 | 6.4 | 0.00 | 0.00 | 0.00 | 22 | 1020.9 | |
| 20260501181033 | 16 | 0.0 | 6.4 | 0.00 | 0.00 | 0.00 | 22 | 1021.2 | |
| 20260501180534 | 16 | 0.0 | 3.2 | 0.00 | 0.00 | 0.00 | 23 | 1021.3 | |
| 20260501180033 | 16 | 0.0 | 4.8 | 0.00 | 0.00 | 0.00 | 28 | 1021.5 | |
| 20260501175534 | 16 | 0.0 | 3.2 | 0.00 | 0.00 | 0.00 | 29 | 1021.5 | |
| 20260501175032 | 15 | 0.0 | 3.2 | 0.00 | 0.00 | 0.00 | 28 | 1021.5 | |
| 20260501174532 | 15 | 0.0 | 4.8 | 0.00 | 0.00 | 0.00 | 29 | 1021.6 | |
| 20260501174032 | 15 | 135 | 1.6 | 8.0 | 0.00 | 0.00 | 0.00 | 29 | 1021.6 |
| 20260501173615 | 15 | 0.0 | 3.2 | 0.00 | 0.00 | 0.00 | 30 | 1021.7 | |
| 20260501173053 | 15 | 0.0 | 1.6 | 0.00 | 0.00 | 0.00 | 31 | 1021.7 | |
| 20260501172534 | 15 | 0.0 | 4.8 | 0.00 | 0.00 | 0.00 | 30 | 1021.7 | |
| 20260501172034 | 14 | 0.0 | 0.0 | 0.00 | 0.00 | 0.00 | 32 | 1021.4 | |
| 20260501171533 | 15 | 0.0 | 6.4 | 0.00 | 0.00 | 0.00 | 30 | 1021.7 | |
| 20260501171032 | 15 | 0.0 | 0.0 | 0.00 | 0.00 | 0.00 | 32 | 1021.8 | |
| 20260501170534 | 15 | 0.0 | 1.6 | 0.00 | 0.00 | 0.00 | 32 | 1021.8 | |
| 20260501170032 | 15 | 0.0 | 1.6 | 0.00 | 0.00 | 0.00 | 32 | 1021.8 | |
| 20260501165536 | 14 | 0.0 | 1.6 | 0.00 | 0.00 | 0.00 | 33 | 1021.4 | |
| 20260501165035 | 13 | 0.0 | 3.2 | 0.00 | 0.00 | 0.00 | 33 | 1021.5 | |
| 20260501164533 | 13 | 0.0 | 3.2 | 0.00 | 0.00 | 0.00 | 32 | 1021.4 | |
| 20260501164032 | 14 | 0.0 | 3.2 | 0.00 | 0.00 | 0.00 | 33 | 1021.4 | |
| 20260501163535 | 13 | 0.0 | 1.6 | 0.00 | 0.00 | 0.00 | 33 | 1021.5 | |
| 20260501163032 | 13 | 0.0 | 1.6 | 0.00 | 0.00 | 0.00 | 33 | 1021.5 | |
| 20260501162555 | 13 | 0.0 | 1.6 | 0.00 | 0.00 | 0.00 | 34 | 1021.4 | |
| 20260501162033 | 13 | 0.0 | 4.8 | 0.00 | 0.00 | 0.00 | 35 | 1021.2 | |
| 20260501161533 | 13 | 0.0 | 3.2 | 0.00 | 0.00 | 0.00 | 35 | 1021.1 | |
| 20260501161032 | 13 | 0.0 | 3.2 | 0.00 | 0.00 | 0.00 | 36 | 1020.8 | |
| 20260501160534 | 13 | 0.0 | 1.6 | 0.00 | 0.00 | 0.00 | 37 | 1020.5 | |
| 20260501160033 | 12 | 0.0 | 1.6 | 0.00 | 0.00 | 0.00 | 37 | 1020.5 | |
| 20260501155534 | 12 | 0.0 | 1.6 | 0.00 | 0.00 | 0.00 | 39 | 1020.5 | |
| 20260501155031 | 12 | 0.0 | 1.6 | 0.00 | 0.00 | 0.00 | 38 | 1020.2 | |
| 20260501154034 | 12 | 0.0 | 0.0 | 0.00 | 0.00 | 0.00 | 38 | 1020.4 | |
| 20260501153534 | 12 | 0.0 | 1.6 | 0.00 | 0.00 | 0.00 | 37 | 1020.3 | |
| 20260501153034 | 12 | 0.0 | 1.6 | 0.00 | 0.00 | 0.00 | 39 | 1020.4 | |
| 20260501152533 | 12 | 0.0 | 1.6 | 0.00 | 0.00 | 0.00 | 40 | 1020.7 | |
| 20260501152031 | 11 | 0.0 | 0.0 | 0.00 | 0.00 | 0.00 | 41 | 1020.4 | |
| 20260501151533 | 11 | 0.0 | 1.6 | 0.00 | 0.00 | 0.00 | 39 | 1020.4 | |
| 20260501151033 | 11 | 0.0 | 0.0 | 0.00 | 0.00 | 0.00 | 40 | 1020.7 | |
| 20260501150554 | 11 | 0.0 | 0.0 | 0.00 | 0.00 | 0.00 | 41 | 1020.7 |